• In Belgien
  • Länderverzeichnis
  • Für 7 Tage
  • Wassertemperatur
  • Satellitenkarten
  • Wetterkarte
  • Widgets
  • user-avatar
    Anmelden

    Stündliche Wetter Podosenovo

    Heute, 24 September, Montag

    Zeit Temperatur Niederschläge Wind Luftdruck Luftfeuchtigkeit
    00:00 +8°C° 0 mm 3 m/S 744 mmHg 89%
    01:00 +7°C° 0 mm 3 m/S 744 mmHg 91%
    02:00 +7°C° 0 mm 3 m/S 744 mmHg 92%
    03:00 +7°C° 0 mm 3 m/S 744 mmHg 93%
    04:00 +5°C° 0 mm 3 m/S 744 mmHg 95%
    05:00 +6°C° 0 mm 2 m/S 744 mmHg 96%
    06:00 +7°C° 0 mm 3 m/S 744 mmHg 91%
    07:00 +8°C° 0 mm 3 m/S 745 mmHg 87%
    08:00 +9°C° 0 mm 3 m/S 745 mmHg 82%
    09:00 +11°C° 0 mm 3 m/S 744 mmHg 75%
    10:00 +12°C° 0 mm 3 m/S 744 mmHg 68%
    11:00 +13°C° 0 mm 3 m/S 744 mmHg 61%
    12:00 +13°C° 0.5 mm 3 m/S 744 mmHg 68%
    13:00 +12°C° 0.5 mm 3 m/S 743 mmHg 75%
    14:00 +11°C° 0.5 mm 3 m/S 743 mmHg 81%
    15:00 +10°C° 1.1 mm 3 m/S 742 mmHg 85%
    16:00 +10°C° 1.1 mm 3 m/S 742 mmHg 88%
    17:00 +9°C° 1.1 mm 3 m/S 741 mmHg 92%
    18:00 +8°C° 1.8 mm 4 m/S 740 mmHg 92%
    19:00 +7°C° 1.8 mm 5 m/S 739 mmHg 92%
    20:00 +7°C° 1.8 mm 5 m/S 737 mmHg 92%
    21:00 +7°C° 2 mm 5 m/S 736 mmHg 92%
    22:00 +7°C° 2 mm 5 m/S 735 mmHg 92%
    23:00 +7°C° 2 mm 5 m/S 734 mmHg 93%

    Morgen, 25 September, Dienstag

    Zeit Temperatur Niederschläge Wind Luftdruck Luftfeuchtigkeit
    00:00 +7°C° 1.1 mm 4 m/S 734 mmHg 92%
    01:00 +8°C° 1.1 mm 4 m/S 733 mmHg 92%
    02:00 +8°C° 1.1 mm 4 m/S 733 mmHg 92%
    03:00 +9°C° 0.5 mm 3 m/S 733 mmHg 92%
    04:00 +8°C° 0.5 mm 3 m/S 733 mmHg 93%
    05:00 +8°C° 0.5 mm 3 m/S 733 mmHg 93%
    06:00 +7°C° 0.2 mm 4 m/S 734 mmHg 92%
    07:00 +7°C° 0.2 mm 5 m/S 734 mmHg 91%
    08:00 +7°C° 0.2 mm 6 m/S 735 mmHg 90%
    09:00 +7°C° 0.3 mm 6 m/S 736 mmHg 89%
    10:00 +7°C° 0.3 mm 6 m/S 737 mmHg 88%
    11:00 +6°C° 0.3 mm 7 m/S 737 mmHg 87%
    12:00 +6°C° 0.4 mm 7 m/S 738 mmHg 86%
    13:00 +6°C° 0.4 mm 7 m/S 739 mmHg 86%
    14:00 +6°C° 0.4 mm 7 m/S 740 mmHg 85%
    15:00 +6°C° 0.4 mm 7 m/S 740 mmHg 84%
    16:00 +5°C° 0.4 mm 7 m/S 741 mmHg 83%
    17:00 +5°C° 0.4 mm 7 m/S 742 mmHg 82%
    18:00 +5°C° 0.1 mm 7 m/S 743 mmHg 82%
    19:00 +5°C° 0.1 mm 7 m/S 744 mmHg 82%
    20:00 +4°C° 0.1 mm 7 m/S 745 mmHg 82%
    21:00 +4°C° 0 mm 7 m/S 746 mmHg 81%
    22:00 +3°C° 0 mm 6 m/S 747 mmHg 81%
    23:00 +3°C° 0 mm 6 m/S 747 mmHg 81%

    übermorgen, 26 September, Mittwoch

    Zeit Temperatur Niederschläge Wind Luftdruck Luftfeuchtigkeit
    00:00 +2°C° 0 mm 6 m/S 748 mmHg 80%
    01:00 +1°C° 0 mm 5 m/S 749 mmHg 78%
    02:00 +1°C° 0 mm 5 m/S 750 mmHg 77%
    03:00 0°C° 0 mm 5 m/S 751 mmHg 77%
    04:00 0°C° 0 mm 5 m/S 751 mmHg 76%
    05:00 -1°C° 0 mm 4 m/S 752 mmHg 76%
    06:00 0°C° 0 mm 4 m/S 753 mmHg 72%
    07:00 +1°C° 0 mm 4 m/S 753 mmHg 68%
    08:00 +3°C° 0 mm 4 m/S 754 mmHg 64%
    09:00 +4°C° 0 mm 4 m/S 754 mmHg 61%
    10:00 +6°C° 0 mm 4 m/S 754 mmHg 57%
    11:00 +7°C° 0 mm 4 m/S 754 mmHg 54%
    12:00 +8°C° 0 mm 4 m/S 754 mmHg 54%
    13:00 +8°C° 0 mm 4 m/S 754 mmHg 54%
    14:00 +9°C° 0 mm 5 m/S 753 mmHg 53%
    15:00 +8°C° 0 mm 4 m/S 753 mmHg 58%
    16:00 +7°C° 0 mm 4 m/S 752 mmHg 63%
    17:00 +6°C° 0 mm 4 m/S 752 mmHg 68%
    18:00 +6°C° 0 mm 5 m/S 751 mmHg 69%
    19:00 +6°C° 0 mm 5 m/S 750 mmHg 70%
    20:00 +5°C° 0 mm 6 m/S 749 mmHg 71%
    21:00 +5°C° 0.4 mm 6 m/S 748 mmHg 74%
    22:00 +5°C° 0.4 mm 7 m/S 747 mmHg 77%
    23:00 +4°C° 0.4 mm 7 m/S 746 mmHg 80%

    27 September, Donnerstag

    Zeit Temperatur Niederschläge Wind Luftdruck Luftfeuchtigkeit
    00:00 +4°C° 1 mm 8 m/S 745 mmHg 82%
    01:00 +4°C° 1 mm 8 m/S 744 mmHg 84%
    02:00 +4°C° 1 mm 8 m/S 743 mmHg 85%
    03:00 +4°C° 0.9 mm 7 m/S 742 mmHg 87%
    04:00 +4°C° 0.9 mm 7 m/S 741 mmHg 88%
    05:00 +4°C° 0.9 mm 6 m/S 740 mmHg 89%
    06:00 +5°C° 0.3 mm 6 m/S 741 mmHg 87%
    07:00 +7°C° 0.3 mm 6 m/S 741 mmHg 84%
    08:00 +7°C° 0.3 mm 5 m/S 741 mmHg 82%
    09:00 +8°C° 0.1 mm 6 m/S 741 mmHg 77%
    10:00 +9°C° 0.1 mm 6 m/S 741 mmHg 72%
    11:00 +9°C° 0.1 mm 6 m/S 741 mmHg 67%
    12:00 +9°C° 0.2 mm 6 m/S 742 mmHg 65%
    13:00 +10°C° 0.2 mm 6 m/S 742 mmHg 62%
    14:00 +10°C° 0.2 mm 6 m/S 742 mmHg 60%
    15:00 +9°C° 0.1 mm 5 m/S 742 mmHg 64%
    16:00 +8°C° 0.1 mm 4 m/S 742 mmHg 68%
    17:00 +8°C° 0.1 mm 3 m/S 742 mmHg 72%
    18:00 +8°C° 0 mm 3 m/S 742 mmHg 75%
    19:00 +7°C° 0 mm 3 m/S 742 mmHg 78%
    20:00 +7°C° 0 mm 3 m/S 743 mmHg 81%
    21:00 +5°C° 0 mm 3 m/S 742 mmHg 83%
    22:00 +5°C° 0 mm 3 m/S 742 mmHg 85%
    23:00 +5°C° 0 mm 3 m/S 742 mmHg 86%

    28 September, Freitag

    Zeit Temperatur Niederschläge Wind Luftdruck Luftfeuchtigkeit
    00:00 +5°C° 0.1 mm 3 m/S 742 mmHg 88%
    01:00 +5°C° 0.1 mm 3 m/S 741 mmHg 91%
    02:00 +5°C° 0.1 mm 3 m/S 740 mmHg 93%
    03:00 +7°C° 1.7 mm 3 m/S 739 mmHg 94%
    04:00 +7°C° 1.7 mm 3 m/S 738 mmHg 95%
    05:00 +7°C° 1.7 mm 2 m/S 736 mmHg 97%
    06:00 +7°C° 1.2 mm 3 m/S 736 mmHg 96%
    07:00 +8°C° 1.2 mm 3 m/S 735 mmHg 95%
    08:00 +7°C° 1.2 mm 4 m/S 734 mmHg 94%
    09:00 +7°C° 0.4 mm 5 m/S 735 mmHg 92%
    10:00 +6°C° 0.4 mm 5 m/S 736 mmHg 89%
    11:00 +5°C° 0.4 mm 6 m/S 737 mmHg 87%
    12:00 +5°C° 0.1 mm 6 m/S 738 mmHg 84%
    13:00 +7°C° 0.1 mm 6 m/S 740 mmHg 80%
    14:00 +8°C° 0.1 mm 6 m/S 741 mmHg 77%
    15:00 +7°C° 0.2 mm 5 m/S 742 mmHg 78%
    16:00 +7°C° 0.2 mm 4 m/S 742 mmHg 80%
    17:00 +6°C° 0.2 mm 4 m/S 743 mmHg 82%
    18:00 +5°C° 0 mm 4 m/S 744 mmHg 84%
    19:00 +5°C° 0 mm 4 m/S 744 mmHg 86%
    20:00 +4°C° 0 mm 4 m/S 745 mmHg 88%
    21:00 +4°C° 0 mm 3 m/S 746 mmHg 88%
    22:00 +3°C° 0 mm 3 m/S 747 mmHg 87%
    23:00 +3°C° 0 mm 3 m/S 747 mmHg 87%

    29 September, Samstag

    Zeit Temperatur Niederschläge Wind Luftdruck Luftfeuchtigkeit
    00:00 +2°C° 0 mm 3 m/S 748 mmHg 88%
    01:00 +2°C° 0 mm 3 m/S 748 mmHg 88%
    02:00 +1°C° 0 mm 3 m/S 749 mmHg 88%
    03:00 +1°C° 0 mm 3 m/S 749 mmHg 89%
    04:00 +1°C° 0 mm 3 m/S 750 mmHg 91%
    05:00 +1°C° 0 mm 3 m/S 750 mmHg 92%
    06:00 +1°C° 0 mm 3 m/S 751 mmHg 90%
    07:00 +2°C° 0 mm 3 m/S 751 mmHg 87%
    08:00 +3°C° 0 mm 4 m/S 752 mmHg 84%
    09:00 +4°C° 0 mm 4 m/S 753 mmHg 76%
    10:00 +5°C° 0 mm 4 m/S 753 mmHg 68%
    11:00 +6°C° 0 mm 4 m/S 754 mmHg 60%
    12:00 +6°C° 0 mm 4 m/S 754 mmHg 56%
    13:00 +7°C° 0 mm 4 m/S 754 mmHg 53%
    14:00 +7°C° 0 mm 4 m/S 754 mmHg 50%
    15:00 +7°C° 0 mm 3 m/S 754 mmHg 55%
    16:00 +5°C° 0 mm 3 m/S 754 mmHg 61%
    17:00 +5°C° 0 mm 2 m/S 754 mmHg 67%
    18:00 +5°C° 0 mm 2 m/S 754 mmHg 68%
    19:00 +4°C° 0 mm 3 m/S 755 mmHg 70%
    20:00 +3°C° 0 mm 3 m/S 755 mmHg 71%
    21:00 +3°C° 0 mm 3 m/S 755 mmHg 74%
    22:00 +3°C° 0 mm 3 m/S 756 mmHg 77%
    23:00 +2°C° 0 mm 3 m/S 756 mmHg 81%
    Mehr zeigen

    3.3.7123123